TimeCST,TemperatureF,Dew PointF,Humidity,Sea Level PressureIn,VisibilityMPH,Wind Direction,Wind SpeedMPH,Gust SpeedMPH,PrecipitationIn,Events,Conditions,WindDirDegrees,DateUTC
12:53 AM,42.1,39.9,92,29.72,10.0,Calm,Calm,-,N/A,,Clear,0,2012-12-17 06:53:00
1:53 AM,43.0,41.0,93,29.70,10.0,Calm,Calm,-,N/A,,Clear,0,2012-12-17 07:53:00
2:53 AM,39.9,37.9,93,29.69,10.0,Calm,Calm,-,N/A,,Overcast,0,2012-12-17 08:53:00
3:53 AM,39.0,37.9,96,29.68,10.0,Calm,Calm,-,N/A,,Clear,0,2012-12-17 09:53:00
4:53 AM,37.0,36.0,96,29.68,10.0,Calm,Calm,-,N/A,,Partly Cloudy,0,2012-12-17 10:53:00
5:53 AM,37.0,37.0,100,29.68,10.0,Calm,Calm,-,N/A,,Partly Cloudy,0,2012-12-17 11:53:00
6:53 AM,37.9,37.9,100,29.70,10.0,Calm,Calm,-,N/A,,Clear,0,2012-12-17 12:53:00
7:53 AM,39.9,39.0,97,29.73,10.0,Calm,Calm,-,N/A,,Scattered Clouds,0,2012-12-17 13:53:00
8:53 AM,48.0,39.9,74,29.74,10.0,NW,4.6,-,N/A,,Clear,320,2012-12-17 14:53:00
9:53 AM,48.0,39.0,71,29.78,7.0,NNW,12.7,20.7,N/A,,Partly Cloudy,330,2012-12-17 15:53:00
10:33 AM,48.2,39.2,71,29.78,7.0,NNW,6.9,16.1,N/A,,Mostly Cloudy,330,2012-12-17 16:33:00
10:45 AM,48.2,39.2,71,29.77,7.0,Variable,6.9,-,N/A,,Scattered Clouds,0,2012-12-17 16:45:00
10:53 AM,48.9,39.0,69,29.78,8.0,NW,9.2,-,N/A,,Partly Cloudy,310,2012-12-17 16:53:00
11:53 AM,52.0,37.9,59,29.78,9.0,NNW,9.2,-,N/A,,Clear,340,2012-12-17 17:53:00
12:53 PM,54.0,37.9,55,29.78,10.0,NNW,9.2,-,N/A,,Clear,340,2012-12-17 18:53:00
1:53 PM,55.9,37.0,49,29.78,10.0,NW,8.1,16.1,N/A,,Clear,320,2012-12-17 19:53:00
2:53 PM,57.0,36.0,45,29.77,10.0,Variable,3.5,-,N/A,,Clear,0,2012-12-17 20:53:00
3:53 PM,57.0,34.0,42,29.78,10.0,Variable,5.8,-,N/A,,Clear,0,2012-12-17 21:53:00
6:53 PM,42.1,35.1,76,29.82,10.0,Calm,Calm,-,N/A,,Clear,0,2012-12-18 00:53:00
7:53 PM,39.0,35.1,86,29.85,10.0,Calm,Calm,-,N/A,,Clear,0,2012-12-18 01:53:00
8:53 PM,37.0,34.0,89,29.86,8.0,Calm,Calm,-,N/A,,Clear,0,2012-12-18 02:53:00
9:53 PM,34.0,33.1,96,29.86,10.0,Calm,Calm,-,N/A,,Clear,0,2012-12-18 03:53:00
10:53 PM,34.0,33.1,96,29.86,9.0,Calm,Calm,-,N/A,,Clear,0,2012-12-18 04:53:00
11:53 PM,30.9,30.0,96,29.87,8.0,Calm,Calm,-,N/A,,Clear,0,2012-12-18 05:53:00